Home > Weather > Niterói > Past weeks

Flag for Brazil Past Weather in Niterói, Rio de Janeiro, Brazil — Yesterday and Last 2 Weeks

Now
68 °F

Partly sunny.


Feels Like: 68 °F
Forecast: 66 / 77 °F
Wind: 8 mph from Northeast

Location: Rio De Janeiro Airport

Current Time: Jul 31, 2016 at 6:48:25 AM

Latest Report: Jul 31, 2016 at 6:00 AM


Visibility: N/A

Pressure: 30.21 "Hg

Humidity: 88%

Dew Point: 64 °F

Location of NiteróiLocation

Past Weather in Niterói — Graph

°F

Niterói Temperature Yesterday

Maximum temperature yesterday: 77 °F (at 1:00 PM)
Minimum temperature yesterday: 68 °F (at 2:00 AM)
Average temperature yesterday: 71 °F

High & Low Weather Summary for the Past Weeks

 TemperatureHumidityPressure
High91 °F (Jul 27, 1:00 PM)94% (Jul 21, 9:00 PM)30.30 "Hg (Jul 21, 9:00 PM)
Low61 °F (Jul 19, 6:00 AM)38% (Jul 24, 2:00 PM)29.71 "Hg (Jul 16, 2:00 PM)
Average70 °F73%30.12 "Hg
* Reported Jul 16 5:00 AM — Jul 31 5:00 AM, Niterói, Weather by CustomWeather, © 2016

Note: Actual official high and low records may vary slightly from our data, if they occured in-between our weather recording intervals... More about our weather records

Advertising

Niterói Weather History for the Previous 24 Hours

Scroll right to see more
 ConditionsComfort  
Time TempWeatherWind HumidityBarometerVisibility
5:00 AM
Sun, Jul 31
68 °FPartly cloudy.9 mph88%30.21 "HgN/A
4:00 AM68 °FPassing clouds.6 mph83%30.21 "HgN/A
3:00 AM68 °FPassing clouds.9 mph83%30.21 "HgN/A
2:00 AM68 °FPassing clouds.3 mph88%30.21 "HgN/A
1:00 AM68 °FPassing clouds.6 mph88%30.24 "HgN/A
12:00 AM68 °FPassing clouds.7 mph88%30.24 "HgN/A
11:00 PM
Sat, Jul 30
68 °FPartly cloudy.5 mph88%30.24 "HgN/A
10:00 PM68 °FPartly cloudy.6 mph88%30.24 "HgN/A
9:00 PM70 °FPartly cloudy.6 mph83%30.24 "HgN/A
8:00 PM70 °FPassing clouds.7 mph88%30.24 "HgN/A
7:00 PM70 °FPassing clouds.9 mph88%30.21 "Hg6 mi
6:00 PM72 °FPassing clouds.13 mph83%30.18 "HgN/A
5:00 PM72 °FPassing clouds.9 mph83%30.18 "HgN/A
4:00 PM73 °FScattered clouds.13 mph74%30.18 "HgN/A
3:00 PM75 °FScattered clouds.15 mph74%30.18 "HgN/A
2:00 PM77 °FPassing clouds.15 mph69%30.21 "HgN/A
1:00 PM77 °FPassing clouds.12 mph69%30.24 "HgN/A
12:00 PM75 °FPartly sunny.8 mph74%30.27 "Hg6 mi
11:00 AM73 °FBroken clouds.5 mph74%30.27 "Hg6 mi
10:00 AM73 °FBroken clouds.5 mph74%30.30 "Hg5 mi
9:00 AM70 °FBroken clouds.6 mph83%30.27 "Hg5 mi
8:00 AM72 °FSunny.5 mph78%30.27 "Hg10 mi
7:00 AM68 °FScattered clouds.1 mph83%30.24 "HgN/A
6:00 AM68 °FBroken clouds.1 mph83%30.21 "HgN/A
Weather by CustomWeather, © 2016

See weather overviewHow to use our weather pages